Change the Weather History Date:

Sunday, November 27, 2011

  Actual Average Record
Temperature  
Mean Temperature 47 °F -  
Max Temperature 57 °F 70 °F 81 °F (1977)
Min Temperature 37 °F 50 °F 27 °F (1992)
Degree Days  
Heating Degree Days 18    
Moisture  
Dew Point 29 °F    
Average Humidity 51    
Maximum Humidity 83    
Minimum Humidity 25    
Precipitation  
Precipitation 0.00 in - - ()
Sea Level Pressure  
Sea Level Pressure 30.27 in    
Wind  
Wind Speed 16 mph (NW)    
Max Wind Speed 28 mph    
Max Gust Speed 38 mph    
Visibility 10 miles    
Events      
Averages and records for this station are not official NWS values.
T = Trace of Precipitation, MM = Missing Value Source: NWS Daily Summary

Daily Weather History Graph

Daily Weather History Graph

Search for Another Location

Airport or City:

Trip Planner

Search our weather history database for the weather conditions in past years. The results will help you decide how hot, cold, wet, or windy it might be!

Date:

Astronomy

Nov. 27, 2011 Rise Set
Actual Time 6:57 AM CST 5:27 PM CST
Civil Twilight 6:31 AM CST 5:53 PM CST
Nautical Twilight 6:02 AM CST 6:22 PM CST
Astronomical Twilight 5:34 AM CST 6:50 PM CST
Moon 9:20 AM CST (11/27) 8:08 PM CST (11/27)
Length of Visible Light 11h 21m
Length of Day
10h 30m
Waxing Crescent, 8% of the Moon is Illuminated
Nov 27
Waxing Crescent
Dec 2
First Quarter
Dec 10
Full
Dec 17
Last Quarter
Dec 24
New

Hourly Weather History & Observations

Time (CST) Temp. Windchill Dew Point Humidity Pressure Visibility Wind Dir Wind Speed Gust Speed Precip Events Conditions
12:53 AM 52.0 °F - 42.1 °F 69% 30.21 in 10.0 mi NNW 16.1 mph - N/A   Clear
1:53 AM 50.0 °F - 41.0 °F 71% 30.21 in 10.0 mi NW 12.7 mph - N/A   Clear
2:53 AM 48.9 °F - 39.9 °F 71% 30.22 in 10.0 mi NW 13.8 mph - N/A   Clear
3:53 AM 48.0 °F - 39.9 °F 74% 30.23 in 10.0 mi NW 11.5 mph - N/A   Clear
4:53 AM 46.0 °F 41.0 °F 41.0 °F 83% 30.25 in 10.0 mi WNW 10.4 mph - N/A   Clear
5:53 AM 48.0 °F - 39.0 °F 71% 30.25 in 10.0 mi NW 11.5 mph - N/A   Overcast
6:53 AM 48.0 °F - 33.1 °F 56% 30.28 in 10.0 mi NW 12.7 mph - N/A   Mostly Cloudy
7:53 AM 48.9 °F - 30.0 °F 48% 30.30 in 10.0 mi NW 15.0 mph - N/A   Clear
8:53 AM 51.8 °F - 26.6 °F 38% 30.32 in 10.0 mi NNW 25.3 mph 34.5 mph N/A   Clear
9:53 AM 52.0 °F - 25.0 °F 35% 30.32 in 10.0 mi NNW 24.2 mph 36.8 mph N/A   Clear
10:53 AM 54.0 °F - 21.9 °F 29% 30.32 in 10.0 mi NNW 27.6 mph 35.7 mph N/A   Clear
11:53 AM 55.0 °F - 21.9 °F 28% 30.30 in 10.0 mi NNW 26.5 mph 38.0 mph N/A   Clear
12:53 PM 57.0 °F - 21.9 °F 26% 30.27 in 10.0 mi NW 21.9 mph 36.8 mph N/A   Clear
1:53 PM 55.9 °F - 21.0 °F 26% 30.25 in 10.0 mi NNW 27.6 mph 38.0 mph N/A   Clear
2:53 PM 57.0 °F - 21.0 °F 25% 30.23 in 10.0 mi NNW 20.7 mph 33.4 mph N/A   Clear
3:53 PM 55.9 °F - 21.9 °F 27% 30.23 in 10.0 mi NNW 25.3 mph 31.1 mph N/A   Clear
4:53 PM 53.1 °F - 21.0 °F 29% 30.23 in 10.0 mi NW 20.7 mph 31.1 mph N/A   Clear
5:53 PM 48.9 °F - 24.1 °F 38% 30.25 in 10.0 mi NW 11.5 mph - N/A   Clear
6:53 PM 44.1 °F 39.0 °F 27.0 °F 51% 30.27 in 10.0 mi NNW 9.2 mph - N/A   Clear
7:53 PM 41.0 °F 35.8 °F 28.9 °F 62% 30.29 in 10.0 mi NNW 8.1 mph - N/A   Clear
8:53 PM 39.9 °F 35.8 °F 27.0 °F 60% 30.29 in 10.0 mi WNW 5.8 mph - N/A   Clear
9:53 PM 39.0 °F 34.8 °F 28.9 °F 67% 30.29 in 10.0 mi West 5.8 mph - N/A   Clear
10:53 PM 37.0 °F 30.4 °F 28.9 °F 73% 30.29 in 10.0 mi WNW 9.2 mph - N/A   Clear
11:53 PM 37.0 °F 31.0 °F 28.0 °F 70% 30.27 in 10.0 mi WNW 8.1 mph - N/A   Clear